sat.trackr.live / text

‹ back to catalog

STARLINK-30374

NORAD 57809 · 2023-138B

PAYLOAD ACTIVE UNKNOWN

§ Identity

Operator
Country
US
Launch date
2023-09-09
Launch site
AFETR
Launch vehicle
Mass (kg)
RCS (m²)

Purposes: comms

External: N2YO · Heavens-Above · Gunter

§ Orbital elements

Epoch: 2026-05-25T01:47:38.064768Z

Period
94.27 min
Inclination
43.0018°
Eccentricity
0.0001513
Mean motion
15.27567102 rev/d
Perigee alt
482.0 km
Apogee alt
484.1 km
Semi-major
6,861.2 km
B*
-8.7403e-5
RAAN
162.5265°
Arg perigee
278.4008°
Mean anomaly
81.6672°
Rev number
15,042

§ Raw data

STARLINK-303741 57809U 23138B   26145.07474612 -.00002666  00000+0 -87403-4 0  99922 57809  43.0018 162.5265 0001513 278.4008  81.6672 15.27567102150421

JSON: /api/v1/satellites/57809 · /tle

For live sub-satellite position, see the globe view (requires WebGL).

§ Visibility from observer

Set your observer location to see the next 7 days of passes ≥ 10°. The values pass through the URL so the page stays shareable.

No JS? Fill the form by hand. The geolocation button needs JavaScript.